GFSNIL_prec_precacc6_096.txt.gz
Total_Precipitation_Accumulation
0.06 0.01 0.00 0.00 0.00 0.00 0.00 0.00 0.00 0.00 0.00 0.00 0.00 0.05 0.20 0.28 0.33 0.20 0.14 0.17 0.11 0.07
0.04 0.01 0.00 0.00 0.00 0.00 0.00 0.00 0.00 0.00 0.00 0.00 0.00 0.04 0.20 0.35 0.42 0.49 0.31 0.24 0.19 0.09
0.08 0.03 0.01 0.00 0.00 0.00 0.00 0.00 0.00 0.00 0.00 0.00 0.00 0.01 0.09 0.22 0.43 0.55 0.44 0.32 0.31 0.27
0.09 0.04 0.03 0.01 0.01 0.00 0.00 0.00 0.00 0.00 0.00 0.00 0.00 0.00 0.03 0.09 0.27 0.53 0.61 0.38 0.37 0.31
0.09 0.06 0.06 0.09 0.07 0.02 0.01 0.00 0.00 0.00 0.00 0.00 0.00 0.00 0.00 0.02 0.17 0.33 0.59 0.57 0.47 0.41
0.13 0.10 0.12 0.10 0.04 0.01 0.01 0.01 0.01 0.00 0.00 0.00 0.00 0.00 0.01 0.02 0.09 0.30 0.41 0.52 0.51 0.43
0.10 0.07 0.08 0.04 0.02 0.01 0.02 0.02 0.01 0.01 0.00 0.00 0.00 0.01 0.01 0.02 0.06 0.10 0.23 0.38 0.48 0.42
0.09 0.05 0.05 0.03 0.02 0.01 0.01 0.01 0.01 0.02 0.01 0.01 0.01 0.02 0.01 0.01 0.02 0.05 0.07 0.14 0.24 0.24
0.11 0.07 0.05 0.03 0.03 0.02 0.01 0.02 0.02 0.03 0.03 0.02 0.02 0.04 0.03 0.02 0.02 0.02 0.03 0.02 0.01 0.04
0.11 0.10 0.08 0.08 0.07 0.04 0.02 0.02 0.03 0.03 0.03 0.03 0.02 0.05 0.04 0.04 0.01 0.02 0.01 0.01 0.01 0.01
0.14 0.09 0.15 0.20 0.16 0.11 0.06 0.03 0.03 0.04 0.04 0.03 0.03 0.05 0.06 0.06 0.03 0.03 0.03 0.03 0.02 0.03
0.21 0.17 0.17 0.19 0.15 0.07 0.06 0.04 0.03 0.04 0.04 0.04 0.04 0.05 0.06 0.05 0.01 0.02 0.03 0.03 0.04 0.05
0.27 0.32 0.27 0.18 0.12 0.09 0.07 0.07 0.06 0.05 0.05 0.09 0.05 0.11 0.10 0.08 0.04 0.05 0.07 0.07 0.10 0.16
0.43 0.38 0.39 0.41 0.34 0.22 0.18 0.15 0.12 0.12 0.14 0.18 0.16 0.21 0.24 0.23 0.17 0.16 0.15 0.15 0.15 0.16

GFSNIL_prec_precacc6_102.txt.gz
Total_Precipitation_Accumulation
0.09 0.11 0.12 0.10 0.04 0.02 0.00 0.00 0.01 0.00 0.00 0.00 0.01 0.02 0.02 0.03 0.04 0.04 0.05 0.04 0.03 0.01
0.13 0.09 0.10 0.11 0.10 0.09 0.07 0.06 0.03 0.00 0.00 0.00 0.00 0.01 0.03 0.03 0.03 0.07 0.12 0.10 0.11 0.12
0.18 0.18 0.17 0.15 0.11 0.13 0.12 0.08 0.02 0.00 0.00 0.00 0.00 0.00 0.01 0.01 0.02 0.06 0.14 0.16 0.14 0.11
0.27 0.30 0.26 0.20 0.17 0.15 0.13 0.09 0.04 0.01 0.00 0.00 0.00 0.00 0.00 0.00 0.01 0.05 0.19 0.38 0.49 0.37
0.62 0.37 0.28 0.17 0.16 0.17 0.15 0.07 0.02 0.00 0.00 0.00 0.00 0.00 0.00 0.00 0.01 0.03 0.17 0.34 0.34 0.40
0.48 0.75 0.41 0.26 0.16 0.13 0.12 0.04 0.01 0.00 0.00 0.00 0.00 0.00 0.00 0.00 0.00 0.02 0.09 0.24 0.38 0.39
0.14 0.35 0.62 0.42 0.32 0.15 0.05 0.02 0.01 0.00 0.00 0.00 0.00 0.00 0.00 0.01 0.03 0.02 0.05 0.14 0.31 0.57
0.09 0.16 0.49 0.47 0.42 0.23 0.04 0.02 0.01 0.01 0.00 0.00 0.01 0.01 0.01 0.00 0.01 0.03 0.02 0.04 0.14 0.38
0.15 0.13 0.17 0.28 0.23 0.11 0.02 0.02 0.01 0.01 0.00 0.00 0.01 0.02 0.02 0.02 0.01 0.02 0.02 0.04 0.06 0.22
0.32 0.29 0.23 0.16 0.11 0.05 0.03 0.04 0.04 0.01 0.01 0.00 0.01 0.02 0.03 0.03 0.01 0.03 0.05 0.08 0.06 0.04
0.34 0.36 0.24 0.26 0.15 0.06 0.05 0.02 0.04 0.02 0.01 0.00 0.01 0.02 0.03 0.04 0.02 0.02 0.04 0.06 0.07 0.04
0.83 0.67 0.43 0.30 0.34 0.29 0.21 0.13 0.04 0.01 0.01 0.01 0.01 0.03 0.03 0.03 0.01 0.03 0.03 0.03 0.05 0.05
0.71 0.87 1.09 0.77 0.45 0.38 0.35 0.32 0.29 0.22 0.13 0.08 0.04 0.07 0.06 0.05 0.01 0.03 0.03 0.02 0.04 0.09
0.23 0.31 0.45 0.62 0.69 0.54 0.40 0.36 0.37 0.38 0.35 0.32 0.27 0.18 0.12 0.10 0.05 0.05 0.06 0.05 0.04 0.07

GFSNIL_prec_precacc6_105.txt.gz
Total_Precipitation_Accumulation
0.01 0.02 0.04 0.05 0.03 0.00 0.00 0.00 0.03 0.06 0.04 0.02 0.04 0.03 0.01 0.02 0.01 0.02 0.02 0.02 0.03 0.03
0.04 0.05 0.07 0.09 0.10 0.09 0.09 0.09 0.14 0.14 0.09 0.05 0.04 0.01 0.02 0.02 0.02 0.03 0.03 0.03 0.04 0.08
0.09 0.12 0.15 0.13 0.10 0.13 0.16 0.16 0.18 0.12 0.08 0.06 0.03 0.00 0.01 0.01 0.01 0.01 0.02 0.02 0.03 0.05
0.15 0.24 0.27 0.24 0.21 0.23 0.20 0.17 0.14 0.13 0.13 0.08 0.03 0.00 0.01 0.00 0.01 0.01 0.02 0.04 0.18 0.20
0.36 0.30 0.25 0.19 0.18 0.20 0.16 0.12 0.10 0.07 0.06 0.02 0.00 0.00 0.00 0.00 0.00 0.00 0.01 0.03 0.11 0.19
0.36 0.44 0.41 0.33 0.25 0.18 0.18 0.10 0.05 0.06 0.02 0.00 0.00 0.00 0.00 0.00 0.00 0.01 0.01 0.02 0.06 0.10
0.10 0.23 0.58 0.45 0.38 0.25 0.16 0.11 0.06 0.03 0.02 0.01 0.00 0.00 0.00 0.00 0.01 0.01 0.00 0.01 0.04 0.13
0.05 0.08 0.43 0.52 0.56 0.50 0.33 0.32 0.09 0.04 0.03 0.01 0.00 0.00 0.00 0.00 0.00 0.01 0.00 0.00 0.01 0.08
0.11 0.09 0.13 0.46 0.58 0.84 0.52 0.49 0.26 0.05 0.04 0.02 0.00 0.01 0.01 0.02 0.01 0.02 0.01 0.01 0.00 0.05
0.19 0.31 0.25 0.24 0.45 0.58 0.58 0.40 0.32 0.10 0.05 0.02 0.01 0.02 0.03 0.03 0.00 0.01 0.01 0.04 0.05 0.02
0.17 0.37 0.46 0.54 0.34 0.20 0.23 0.19 0.15 0.09 0.05 0.01 0.01 0.03 0.05 0.06 0.01 0.00 0.00 0.02 0.03 0.03
0.49 0.45 0.46 0.62 0.85 0.42 0.22 0.17 0.08 0.05 0.02 0.01 0.01 0.03 0.05 0.05 0.01 0.01 0.00 0.00 0.02 0.03
0.36 0.60 1.11 0.94 0.75 0.86 0.55 0.19 0.17 0.18 0.13 0.10 0.04 0.08 0.09 0.07 0.03 0.01 0.00 0.00 0.01 0.04
0.10 0.21 0.44 0.82 0.94 0.81 0.67 0.42 0.26 0.31 0.37 0.36 0.32 0.29 0.24 0.18 0.12 0.12 0.08 0.03 0.01 0.03

GFSNIL_prec_precacc6_111.txt.gz
Total_Precipitation_Accumulation
0.00 0.00 0.01 0.00 0.01 0.03 0.03 0.01 0.01 0.05 0.06 0.05 0.09 0.14 0.06 0.01 0.01 0.05 0.02 0.01 0.01 0.01
0.02 0.01 0.01 0.02 0.01 0.01 0.03 0.04 0.04 0.07 0.12 0.10 0.15 0.16 0.06 0.01 0.01 0.02 0.05 0.04 0.02 0.01
0.07 0.05 0.02 0.03 0.04 0.04 0.02 0.04 0.03 0.07 0.16 0.21 0.25 0.23 0.06 0.02 0.01 0.02 0.02 0.02 0.03 0.01
0.16 0.32 0.30 0.22 0.17 0.13 0.09 0.09 0.07 0.06 0.10 0.10 0.13 0.16 0.08 0.05 0.01 0.02 0.02 0.01 0.01 0.02
0.12 0.27 0.41 0.45 0.37 0.34 0.21 0.22 0.21 0.13 0.14 0.14 0.14 0.08 0.05 0.04 0.04 0.01 0.02 0.02 0.02 0.02
0.09 0.22 0.25 0.38 0.71 0.48 0.31 0.26 0.26 0.20 0.17 0.16 0.17 0.12 0.05 0.03 0.02 0.02 0.02 0.02 0.01 0.02
0.26 0.40 0.38 0.21 0.27 0.42 0.33 0.30 0.31 0.28 0.21 0.24 0.24 0.20 0.15 0.03 0.01 0.01 0.01 0.02 0.01 0.00
0.28 0.33 0.57 0.35 0.11 0.08 0.22 0.29 0.28 0.28 0.22 0.17 0.16 0.18 0.18 0.11 0.05 0.03 0.02 0.01 0.00 0.00
0.40 0.37 0.27 0.38 0.28 0.11 0.10 0.11 0.42 0.31 0.16 0.15 0.11 0.16 0.14 0.08 0.05 0.03 0.02 0.00 0.00 0.00
0.44 0.48 0.41 0.28 0.31 0.38 0.51 0.51 0.46 0.77 0.59 0.21 0.20 0.24 0.09 0.06 0.02 0.02 0.02 0.01 0.00 0.00
0.08 0.16 0.19 0.34 0.34 0.36 0.56 0.80 0.85 0.68 0.82 0.94 0.46 0.32 0.21 0.07 0.03 0.02 0.02 0.01 0.00 0.00
0.05 0.06 0.05 0.15 0.43 0.49 0.48 0.57 0.67 0.77 0.54 0.66 0.82 0.68 0.55 0.32 0.12 0.06 0.03 0.02 0.01 0.01
0.05 0.06 0.09 0.14 0.22 0.47 0.63 0.76 0.65 0.56 0.57 0.48 0.45 0.46 0.51 0.45 0.33 0.21 0.10 0.04 0.03 0.02
0.03 0.07 0.14 0.14 0.25 0.34 0.59 0.73 0.79 0.70 0.54 0.44 0.39 0.31 0.29 0.28 0.27 0.23 0.17 0.10 0.04 0.03

GFSNIL_prec_precacc6_114.txt.gz
Total_Precipitation_Accumulation
0.00 0.00 0.00 0.00 0.00 0.02 0.02 0.02 0.05 0.11 0.14 0.09 0.02 0.02 0.05 0.05 0.02 0.08 0.13 0.08 0.06 0.03
0.00 0.00 0.00 0.00 0.00 0.00 0.03 0.05 0.07 0.08 0.05 0.05 0.04 0.05 0.05 0.04 0.08 0.06 0.15 0.25 0.23 0.13
0.01 0.02 0.01 0.01 0.01 0.02 0.01 0.05 0.08 0.09 0.07 0.04 0.05 0.11 0.08 0.08 0.09 0.13 0.09 0.17 0.43 0.41
0.04 0.11 0.18 0.18 0.14 0.12 0.08 0.09 0.11 0.10 0.13 0.11 0.06 0.10 0.06 0.08 0.07 0.14 0.13 0.05 0.07 0.43
0.03 0.08 0.22 0.37 0.32 0.34 0.24 0.29 0.28 0.20 0.20 0.19 0.23 0.11 0.05 0.08 0.09 0.08 0.12 0.04 0.03 0.11
0.07 0.07 0.10 0.26 0.56 0.54 0.43 0.34 0.42 0.39 0.35 0.18 0.19 0.13 0.07 0.05 0.04 0.04 0.06 0.05 0.11 0.07
0.20 0.23 0.25 0.26 0.30 0.46 0.56 0.48 0.45 0.43 0.55 0.56 0.37 0.20 0.20 0.11 0.06 0.05 0.07 0.10 0.10 0.05
0.33 0.39 0.37 0.36 0.34 0.37 0.45 0.59 0.51 0.36 0.28 0.31 0.37 0.27 0.26 0.21 0.16 0.15 0.12 0.05 0.02 0.01
0.31 0.34 0.34 0.45 0.38 0.22 0.13 0.13 0.23 0.31 0.24 0.23 0.21 0.28 0.27 0.27 0.21 0.18 0.13 0.05 0.02 0.01
0.26 0.29 0.40 0.31 0.34 0.34 0.25 0.16 0.09 0.25 0.42 0.25 0.31 0.47 0.42 0.28 0.14 0.12 0.12 0.07 0.02 0.01
0.13 0.19 0.15 0.30 0.34 0.31 0.38 0.40 0.37 0.21 0.38 0.73 0.52 0.53 0.49 0.30 0.14 0.14 0.11 0.11 0.09 0.04
0.11 0.07 0.03 0.05 0.12 0.29 0.31 0.46 0.63 0.68 0.51 0.61 0.90 0.96 0.88 0.77 0.36 0.21 0.15 0.13 0.11 0.09
0.08 0.05 0.08 0.08 0.12 0.28 0.33 0.46 0.53 0.59 0.79 0.82 0.75 0.88 0.98 0.97 0.88 0.65 0.47 0.29 0.19 0.17
0.04 0.07 0.10 0.07 0.08 0.13 0.22 0.32 0.53 0.56 0.63 0.67 0.77 0.81 0.77 0.67 0.64 0.64 0.61 0.55 0.45 0.35